User: anonymous   Login
Location: Unspecified
(0.0000°N, 0.0000°E)
Time: 06:22:30
(UTC+00:00)
Language:

NUDT-PHONESAT - Orbit

View from above orbital plane
View from above orbital plane
View from above satellite
View from above satellite

Ground track
Ground track

The orbit data is extracted from the following two-line orbital elements,

1 40900U 15049B   18116.80059038  .00001984  00000-0  92156-4 0  9991
2 40900  97.4422 125.6510 0012767 201.9985 158.0704 15.21108911144104
Epoch (UTC): 26 April 2018 19:12:51
Eccentricity: 0.0012767
inclination: 97.4422°
perigee height: 494 km
apogee height: 511 km
right ascension of ascending node: 125.6510°
argument of perigee: 201.9985°
revolutions per day: 15.21108911
mean anomaly at epoch: 158.0704°
orbit number at epoch: 14410

The dashed part of the orbit path shows where the satellite is in the earth's shadow,  

DLR